Location: 3 Angels Observatory
(30.5437°N, 88.5068°W)
Time: 00:21:35
(UTC-05:00)

Amateur Radio Satellites - All Passes

Search period start: 28 March 2017 23:51
Search period end: 29 March 2017 23:51
Location: 3 Angels Observatory, 30.5437°N, 88.5068°W

Satellite Date Start Highest point End Downlink Frequencies (MHz)
Time Altitude Azimuth
RS-15 28 Mar 23:56:49 00:06:52 33° 256° (WSW) 00:16:34 29.354- 29.394
DX 1 29 Mar 00:02:07 00:04:19 14° 68° (ENE) 00:06:31 434.975-435.025
AIST 2D 29 Mar 00:19:11 00:22:38 70° 283° (WNW) 00:26:04 435.315
50 SAT 29 Mar 00:24:28 00:27:39 37° 75° (ENE) 00:30:52 437.505
VELOX 1 29 Mar 00:31:13 00:35:36 88° 86° (E) 00:40:03 145.980
NANOSAT C BR1 29 Mar 00:34:04 00:38:17 70° 102° (ESE) 00:42:26 145.865
UKube-1 29 Mar 00:35:29 00:38:55 24° 71° (ENE) 00:42:21 .
EO-79 29 Mar 00:40:20 00:44:34 87° 285° (WNW) 00:48:45 145.935-145.965
SO-50 29 Mar 00:53:22 00:56:44 21° 250° (WSW) 01:00:06 436.795
SPROUT 29 Mar 00:55:49 01:00:00 52° 260° (W) 01:04:12 437.525
POLYITAN 1 29 Mar 01:09:37 01:13:28 35° 287° (WNW) 01:17:18 437.675
QB50P2 29 Mar 01:14:34 01:18:12 29° 288° (WNW) 01:21:49 145.880/145.840
DUCHIFAT 1 29 Mar 01:22:32 01:26:13 30° 287° (WNW) 01:29:53 145.980
BUGSAT 1 29 Mar 01:27:25 01:31:35 86° 102° (ESE) 01:35:39 437.445
DX 1 29 Mar 01:36:03 01:40:06 38° 261° (W) 01:44:11 434.975-435.025
O/OREOS (USA 219) 29 Mar 01:47:14 01:49:21 13° 61° (ENE) 01:51:29 437.305
Oscar 19 29 Mar 01:48:37 01:53:24 37° 99° (E) 01:58:10 437.125/150
ITUPSAT 1 29 Mar 02:00:34 02:03:11 15° 67° (ENE) 02:05:49 437.325
UKube-1 29 Mar 02:11:31 02:14:49 21° 263° (W) 02:18:08 .
Gurwin Techsat 1B 29 Mar 02:24:19 02:29:26 47° 100° (E) 02:34:32 435.225
Tancredo 1 29 Mar 02:25:22 02:27:26 16° 36° (NE) 02:29:29 437.200
ISS 29 Mar 02:37:25 02:39:50 19° 37° (NE) 02:42:15 437.550
MOZHAYETS 4 29 Mar 03:10:56 03:15:04 34° 73° (ENE) 03:19:12
BEESAT 29 Mar 03:17:39 03:22:25 71° 258° (WSW) 03:27:11 436.000
O/OREOS (USA 219) 29 Mar 03:24:34 03:28:59 47° 255° (WSW) 03:33:22 437.305
Oscar 19 29 Mar 03:28:41 03:32:24 20° 292° (WNW) 03:36:07 437.125/150
ITUPSAT 1 29 Mar 03:36:00 03:40:34 44° 260° (W) 03:45:09 437.325
ITAMSAT 1 29 Mar 03:41:30 03:46:21 40° 99° (E) 03:51:10 435.822/435.867
AO-7 29 Mar 03:51:19 03:59:05 43° 101° (ESE) 04:06:47 .
Tancredo 1 29 Mar 04:00:41 04:03:37 34° 230° (SW) 04:06:33 437.200
Gurwin Techsat 1B 29 Mar 04:05:39 04:08:56 17° 293° (WNW) 04:12:13 435.225
KKS-1 29 Mar 04:08:57 04:12:49 30° 72° (ENE) 04:16:42 437.445
CUBESAT XI-V 29 Mar 04:11:09 04:14:45 23° 71° (ENE) 04:18:20 437.345
ISS 29 Mar 04:13:24 04:16:19 29° 231° (SW) 04:19:14 437.550
STARS 29 Mar 04:37:26 04:41:05 26° 71° (ENE) 04:44:46 437.465
MOZHAYETS 4 29 Mar 04:49:17 04:52:14 17° 265° (W) 04:55:10
AO-85 29 Mar 04:54:46 04:57:05 15° 54° (NE) 04:59:26 145.980
NO-84 29 Mar 05:20:16 05:23:14 60° 128° (SE) 05:26:05 435.350 FM
ITAMSAT 1 29 Mar 05:21:55 05:25:27 19° 293° (WNW) 05:28:59 435.822/435.867
M-CUBED/EXP-1 PRIME 29 Mar 05:37:35 05:39:56 16° 64° (ENE) 05:42:24 437.505
AO-7 29 Mar 05:44:20 05:51:34 35° 296° (WNW) 05:58:50 .
KKS-1 29 Mar 05:46:15 05:49:19 18° 264° (W) 05:52:25 437.445
CUBESAT XI-V 29 Mar 05:48:12 05:51:56 25° 263° (W) 05:55:42 437.345
CUTE-I 29 Mar 05:54:15 05:55:59 11° 93° (E) 05:57:43 437.470
JUGNU 29 Mar 06:00:32 06:04:31 19° 166° (SSE) 06:08:30 437.505
STARS 29 Mar 06:14:01 06:17:20 21° 264° (W) 06:20:39 437.465
STRAND 1 29 Mar 06:14:46 06:15:55 11° 65° (ENE) 06:17:04 437.568
AO-85 29 Mar 06:33:52 06:37:30 34° 247° (WSW) 06:41:16 145.980
XW-2F 29 Mar 06:39:04 06:42:34 38° 99° (E) 06:46:02 145.980 - 146.000
LilacSat-2 29 Mar 06:45:36 06:49:18 53° 100° (E) 06:52:58 437.200
DOVE 4 29 Mar 06:55:32 07:00:51 85° 282° (WNW) 07:05:57 437.250
NUDT-PHONESAT 29 Mar 06:55:43 06:59:19 53° 100° (E) 07:02:54 437.300
KAITUO 1B 29 Mar 07:06:42 07:10:24 81° 103° (ESE) 07:14:05 145.475/437.950
XW-2D 29 Mar 07:06:43 07:10:27 74° 283° (WNW) 07:14:10 145.860 - 145.880
BEESAT 3 29 Mar 07:09:58 07:13:51 46° 60° (ENE) 07:17:41 437.485
M-CUBED/EXP-1 PRIME 29 Mar 07:11:06 07:14:07 25° 259° (W) 07:17:21 437.505
XW-2B 29 Mar 07:12:46 07:16:28 63° 283° (WNW) 07:20:09 145.730 - 145.750
XW-2C 29 Mar 07:23:12 07:26:46 43° 284° (WNW) 07:30:19 145.795 - 145.815
CUTE-I 29 Mar 07:31:04 07:36:21 63° 285° (WNW) 07:41:35 437.470
BEESAT 2 29 Mar 07:32:23 07:35:59 30° 58° (ENE) 07:39:34 435.950
YUBILEINY 29 Mar 07:34:06 07:42:46 71° 93° (E) 07:51:26 435.215
JUGNU 29 Mar 07:48:04 07:52:58 28° 176° (S) 07:57:54 437.505
STRAND 1 29 Mar 07:49:18 07:54:26 70° 258° (WSW) 07:59:34 437.568
XW-2A 29 Mar 07:54:36 07:57:49 43° 99° (E) 08:01:00 145.665 - 145.685
PCSat 29 Mar 08:02:14 08:06:16 22° 106° (ESE) 08:10:19 145.827
SRMSAT 29 Mar 08:09:24 08:13:00 16° 164° (SSE) 08:16:37 437.500
AAUSAT CUBESAT 2 29 Mar 08:10:29 08:12:51 15° 95° (E) 08:15:13 437.432
UWE-3 29 Mar 08:21:07 08:23:50 17° 95° (E) 08:26:31 435.000/436.395/437.385
HO-68 29 Mar 08:27:56 08:35:07 79° 105° (ESE) 08:42:18 435.675
SEEDS 29 Mar 08:33:27 08:37:38 71° 102° (ESE) 08:41:49 437.485
Oscar 11 29 Mar 08:42:43 08:44:37 13° 94° (E) 08:46:32 .
CUTE 1.7 + AOD 2 29 Mar 08:46:13 08:50:16 47° 285° (WNW) 08:54:20 437.475
ZACube-1 29 Mar 08:54:27 08:57:48 23° 96° (E) 09:01:08 437.345
CUBEBUG 2 29 Mar 08:59:55 09:04:14 83° 284° (WNW) 09:08:25 437.445
BEESAT 2 29 Mar 09:11:00 09:13:27 16° 251° (WSW) 09:15:54 435.950
AO-73 29 Mar 09:20:29 09:24:29 46° 99° (E) 09:28:26 145.935
FO-29 29 Mar 09:28:30 09:34:18 24° 67° (ENE) 09:39:50 435.910
YUBILEINY 29 Mar 09:34:24 09:40:11 19° 289° (WNW) 09:46:00 435.215
JUGNU 29 Mar 09:36:37 09:41:29 27° 186° (S) 09:46:24 437.505
PCSat 29 Mar 09:44:21 09:49:20 38° 299° (WNW) 09:54:22 145.827
AAUSAT CUBESAT 2 29 Mar 09:44:38 09:48:18 31° 287° (WNW) 09:51:58 437.432
TIGRISAT 29 Mar 09:48:20 09:52:32 34° 73° (ENE) 09:56:43 435.000
PRISM 29 Mar 09:50:26 09:54:28 85° 80° (E) 09:58:34 437.425
UWE-3 29 Mar 09:56:41 10:00:16 27° 288° (WNW) 10:03:48 435.000/436.395/437.385
SRMSAT 29 Mar 09:56:42 10:01:38 27° 173° (S) 10:06:35 437.500
UNISAT 6 29 Mar 09:59:06 10:03:37 49° 75° (ENE) 10:08:07 437.425
Oscar 11 29 Mar 10:16:51 10:20:50 38° 286° (WNW) 10:24:50 .
HO-68 29 Mar 10:18:03 10:21:58 16° 299° (WNW) 10:25:54 435.675
ZACube-1 29 Mar 10:30:54 10:33:54 19° 289° (WNW) 10:36:52 437.345
DELFI C3 29 Mar 10:36:03 10:40:02 82° 283° (WNW) 10:44:02 145.870
AIST 2D 29 Mar 10:49:09 10:51:22 16° 72° (ENE) 10:53:36 435.315
AO-73 29 Mar 10:59:47 11:00:14 10° 293° (WNW) 11:00:42 145.935
FO-29 29 Mar 11:11:00 11:18:45 61° 259° (W) 11:26:07 435.910
LO-87 29 Mar 11:14:37 11:17:37 24° 97° (E) 11:20:35 145.935 - 145.965
NANOSAT C BR1 29 Mar 11:20:54 11:24:22 24° 71° (ENE) 11:27:48 145.865
TIGRISAT 29 Mar 11:26:01 11:29:12 18° 265° (W) 11:32:22 435.000
JUGNU 29 Mar 11:26:12 11:29:58 17° 195° (SSW) 11:33:45 437.505
EO-79 29 Mar 11:27:08 11:30:55 32° 73° (ENE) 11:34:44 145.935-145.965
ESTCUBE 1 29 Mar 11:28:56 11:32:14 20° 96° (E) 11:35:31 437.505/2401.250
UNISAT 6 29 Mar 11:38:40 11:40:28 12° 267° (W) 11:42:17 437.425
SRMSAT 29 Mar 11:45:15 11:50:21 29° 183° (S) 11:55:26 437.500
POLYITAN 1 29 Mar 11:55:42 11:59:59 77° 76° (ENE) 12:04:16 437.675
RS-15 29 Mar 11:57:30 12:09:07 67° 111° (ESE) 12:21:14 29.354- 29.394
QB50P2 29 Mar 12:00:30 12:04:46 85° 258° (WSW) 12:09:05 145.880/145.840
DUCHIFAT 1 29 Mar 12:07:43 12:11:58 87° 79° (E) 12:16:14 145.980
BUGSAT 1 29 Mar 12:11:36 12:15:10 27° 72° (ENE) 12:18:45 437.445
AIST 2D 29 Mar 12:21:46 12:24:24 20° 264° (W) 12:27:02 435.315
VELOX 1 29 Mar 12:27:17 12:31:00 26° 97° (E) 12:34:41 145.980
SPROUT 29 Mar 12:47:08 12:51:08 38° 99° (E) 12:55:06 437.525
LO-87 29 Mar 12:48:47 12:50:47 14° 289° (WNW) 12:52:48 145.935 - 145.965
NANOSAT C BR1 29 Mar 12:56:47 12:59:57 20° 264° (W) 13:03:08 145.865
Oscar 19 29 Mar 13:00:12 13:04:38 31° 71° (ENE) 13:09:04 437.125/150
EO-79 29 Mar 13:04:09 13:06:41 15° 265° (W) 13:09:13 145.935-145.965
ESTCUBE 1 29 Mar 13:05:07 13:08:57 28° 288° (WNW) 13:12:47 437.505/2401.250
SO-50 29 Mar 13:21:03 13:25:17 35° 112° (ESE) 13:29:29 436.795
50 SAT 29 Mar 13:26:32 13:30:03 82° 283° (WNW) 13:33:33 437.505
DX 1 29 Mar 13:29:22 13:33:40 54° 101° (E) 13:37:57 434.975-435.025
SRMSAT 29 Mar 13:34:40 13:39:01 21° 193° (SSW) 13:43:21 437.500
NO-84 29 Mar 13:35:23 13:38:21 32° 47° (NE) 13:41:33 435.350 FM
Gurwin Techsat 1B 29 Mar 13:39:50 13:44:50 44° 72° (ENE) 13:49:51 435.225
BUGSAT 1 29 Mar 13:47:33 13:50:27 18° 264° (W) 13:53:22 437.445
UKube-1 29 Mar 14:02:47 14:07:08 85° 282° (WNW) 14:11:26 .
VELOX 1 29 Mar 14:03:53 14:07:15 21° 290° (WNW) 14:10:37 145.980
RS-15 29 Mar 14:11:56 14:22:24 34° 312° (NW) 14:33:13 29.354- 29.394
SPROUT 29 Mar 14:24:38 14:26:38 13° 292° (WNW) 14:28:39 437.525
Oscar 19 29 Mar 14:39:52 14:43:52 23° 264° (W) 14:47:54 437.125/150
AO-7 29 Mar 14:44:27 14:51:48 36° 65° (ENE) 14:59:09 .
ITAMSAT 1 29 Mar 14:53:57 14:58:40 35° 71° (ENE) 15:03:23 435.822/435.867
SO-50 29 Mar 15:02:21 15:05:47 20° 306° (NW) 15:09:11 436.795
DX 1 29 Mar 15:08:41 15:09:19 10° 294° (WNW) 15:09:57 434.975-435.025
MOZHAYETS 4 29 Mar 15:13:19 15:15:07 12° 93° (E) 15:16:54
NO-84 29 Mar 15:13:51 15:15:44 14° 236° (SW) 15:17:41 435.350 FM
Gurwin Techsat 1B 29 Mar 15:21:27 15:24:52 17° 265° (W) 15:28:19 435.225
BEESAT 29 Mar 15:23:26 15:28:00 45° 100° (E) 15:32:31 436.000
ITUPSAT 1 29 Mar 15:41:47 15:46:32 73° 102° (ESE) 15:51:16 437.325
O/OREOS (USA 219) 29 Mar 15:52:01 15:56:10 38° 104° (ESE) 16:00:23 437.305
ITAMSAT 1 29 Mar 16:34:14 16:38:07 21° 264° (W) 16:42:01 435.822/435.867
AO-7 29 Mar 16:36:36 16:44:19 42° 259° (W) 16:52:04 .
MOZHAYETS 4 29 Mar 16:48:05 16:52:25 45° 286° (WNW) 16:56:45
BEESAT 29 Mar 17:02:51 17:05:19 14° 293° (WNW) 17:07:47 436.000
CUTE-I 29 Mar 17:10:57 17:12:58 12° 65° (ENE) 17:14:59 437.470
LilacSat-2 29 Mar 17:23:57 17:25:31 12° 70° (ENE) 17:27:05 437.200
NUDT-PHONESAT 29 Mar 17:32:01 17:33:06 11° 69° (ENE) 17:34:12 437.300
O/OREOS (USA 219) 29 Mar 17:33:02 17:35:42 15° 298° (WNW) 17:38:21 437.305
KKS-1 29 Mar 17:41:07 17:45:32 61° 285° (WNW) 17:49:55 437.445
KAITUO 1B 29 Mar 17:42:27 17:44:45 16° 71° (ENE) 17:47:04 145.475/437.950
XW-2D 29 Mar 17:42:59 17:45:55 22° 72° (ENE) 17:48:51 145.860 - 145.880
XW-2B 29 Mar 17:48:47 17:51:55 25° 73° (ENE) 17:55:03 145.730 - 145.750
CUBESAT XI-V 29 Mar 17:49:10 17:53:48 66° 284° (WNW) 17:58:26 437.345
YUBILEINY 29 Mar 17:52:21 17:59:18 26° 74° (ENE) 18:06:13 435.215
DOVE 4 29 Mar 17:54:53 17:59:22 49° 74° (ENE) 18:04:09 437.250
XW-2C 29 Mar 17:58:46 18:02:14 34° 75° (ENE) 18:05:42 145.795 - 145.815
STARS 29 Mar 18:07:34 18:11:59 74° 284° (WNW) 18:16:21 437.465
PCSat 29 Mar 18:37:23 18:42:41 52° 63° (ENE) 18:47:56 145.827
CUTE-I 29 Mar 18:47:01 18:52:21 68° 258° (WSW) 18:57:43 437.470
XW-2F 29 Mar 18:48:00 18:51:39 45° 261° (W) 18:55:17 145.980 - 146.000
HO-68 29 Mar 18:50:54 18:57:06 33° 67° (ENE) 19:03:18 435.675
M-CUBED/EXP-1 PRIME 29 Mar 18:53:57 18:58:15 35° 102° (ESE) 19:02:25 437.505
LilacSat-2 29 Mar 18:56:01 18:59:27 32° 262° (W) 19:02:54 437.200
Tancredo 1 29 Mar 18:56:26 18:59:33 89° 157° (SSE) 19:02:43 437.200
RS-15 29 Mar 18:57:13 19:02:06 13° 25° (NNE) 19:06:54 29.354- 29.394
NUDT-PHONESAT 29 Mar 19:03:14 19:06:39 33° 262° (W) 19:10:04 437.300
AO-85 29 Mar 19:03:22 19:06:42 20° 111° (ESE) 19:09:53 145.980
ISS 29 Mar 19:12:24 19:15:37 68° 315° (NW) 19:18:50 437.550
KAITUO 1B 29 Mar 19:15:32 19:18:33 23° 263° (W) 19:21:33 145.475/437.950
XW-2D 29 Mar 19:17:26 19:20:00 17° 264° (W) 19:22:34 145.860 - 145.880
SEEDS 29 Mar 19:20:07 19:23:22 23° 72° (ENE) 19:26:37 437.485
XW-2B 29 Mar 19:23:49 19:26:03 15° 265° (W) 19:28:17 145.730 - 145.750
CUTE 1.7 + AOD 2 29 Mar 19:32:48 19:36:54 54° 76° (ENE) 19:41:00 437.475
DOVE 4 29 Mar 19:35:27 19:37:21 12° 269° (W) 19:39:17 437.250
XW-2C 29 Mar 19:35:38 19:36:29 11° 266° (W) 19:37:20 145.795 - 145.815
ZACube-1 29 Mar 19:46:51 19:48:00 11° 68° (ENE) 19:49:09 437.345
YUBILEINY 29 Mar 19:47:59 19:56:21 54° 270° (W) 20:04:45 435.215
CUBEBUG 2 29 Mar 19:51:36 19:56:03 41° 74° (ENE) 20:00:30 437.445
XW-2A 29 Mar 19:52:41 19:56:01 50° 260° (W) 19:59:23 145.665 - 145.685
STRAND 1 29 Mar 20:05:31 20:10:35 64° 101° (E) 20:15:37 437.568
AO-73 29 Mar 20:10:51 20:14:06 20° 71° (ENE) 20:17:18 145.935
PCSat 29 Mar 20:22:29 20:25:33 15° 256° (WSW) 20:28:37 145.827
AAUSAT CUBESAT 2 29 Mar 20:28:20 20:32:25 77° 77° (ENE) 20:36:30 437.432
M-CUBED/EXP-1 PRIME 29 Mar 20:29:02 20:32:19 19° 295° (WNW) 20:35:35 437.505
HO-68 29 Mar 20:38:07 20:44:36 37° 261° (W) 20:51:09 435.675
AO-85 29 Mar 20:42:59 20:46:54 29° 301° (WNW) 20:50:37 145.980
UWE-3 29 Mar 20:46:30 20:51:10 75° 259° (W) 20:55:47 435.000/436.395/437.385
BEESAT 3 29 Mar 20:54:42 20:58:05 29° 112° (ESE) 21:01:32 437.485
SEEDS 29 Mar 20:55:49 20:58:55 20° 264° (W) 21:02:02 437.485
Oscar 11 29 Mar 21:05:18 21:09:35 75° 78° (ENE) 21:13:54 .
RS-15 29 Mar 21:07:18 21:18:56 47° 54° (NE) 21:29:58 29.354- 29.394
DELFI C3 29 Mar 21:16:26 21:19:35 24° 72° (ENE) 21:22:45 145.870
BEESAT 2 29 Mar 21:18:58 21:21:52 20° 110° (ESE) 21:24:48 435.950
ZACube-1 29 Mar 21:19:19 21:23:46 54° 260° (W) 21:28:10 437.345
CUBEBUG 2 29 Mar 21:30:03 21:32:44 15° 266° (W) 21:35:26 437.445
PRISM 29 Mar 21:38:13 21:41:04 18° 96° (E) 21:43:55 437.425
AO-73 29 Mar 21:46:10 21:50:05 29° 263° (W) 21:53:58 145.935
STRAND 1 29 Mar 21:47:28 21:49:08 12° 295° (WNW) 21:50:49 437.568
UNISAT 6 29 Mar 21:58:02 22:00:28 15° 94° (E) 22:02:54 437.425
FO-29 29 Mar 22:29:23 22:33:33 22° 94° (E) 22:37:30 435.910
BEESAT 3 29 Mar 22:33:11 22:35:42 16° 306° (NW) 22:38:15 437.485
DELFI C3 29 Mar 22:51:44 22:54:17 17° 265° (W) 22:56:52 145.870
BEESAT 2 29 Mar 22:56:16 22:59:28 23° 304° (WNW) 23:02:41 435.950
PRISM 29 Mar 23:12:47 23:16:16 26° 288° (WNW) 23:19:45 437.425
LO-87 29 Mar 23:17:36 23:21:11 87° 258° (WSW) 23:24:48 145.935 - 145.965
RS-15 29 Mar 23:20:05 23:31:13 45° 253° (WSW) 23:41:52 29.354- 29.394
VELOX 1 29 Mar 23:21:04 23:22:39 12° 67° (ENE) 23:24:14 145.980
TIGRISAT 29 Mar 23:21:46 23:25:57 50° 285° (WNW) 23:30:04 435.000
UNISAT 6 29 Mar 23:33:21 23:37:14 33° 287° (WNW) 23:41:04 437.425
SPROUT 29 Mar 23:36:13 23:38:42 15° 69° (ENE) 23:41:10 437.525
SO-50 29 Mar 23:37:25 23:41:55 82° 62° (ENE) 23:46:25 436.795
